Weather Service Report


621 
ASUS41 KAKQ 192014
RWRAKQ

REGIONAL WEATHER ROUNDUP
NATIONAL WEATHER SERVICE WAKEFIELD VA
300 PM EST SUN FEB 19 2017

Note: "fair" indicates few or no clouds below 12,000 feet with no
significant weather and/or obstructions to visibility. * = Denotes
station may not report precipitation (e.g., rain,snow,etc.),
thunder or fog.

VAZ042-051-052>054-056-192100-
NORTHERN VIRGINIA
  
CITY           SKY/WX    TMP DP  RH WIND       PRES   REMARKS
WASH NATIONAL  MOSUNNY   71  43  36 NW14      29.91S                  
DULLES         MOSUNNY   68  40  35 W20       29.91F                  
FORT BELVOIR   SUNNY     71  42  35 W10       29.91S                  
QUANTICO       MOSUNNY   73  42  32 NW12      29.92S                  
FREDERICKSBRG* SUNNY     72  47  40 NW3       29.91S                  
STAFFORD*      SUNNY     72  43  36 CALM      29.95F                  
WARRENTON      SUNNY     74  33  22 W8        29.92R                  
CULPEPER*      SUNNY     73  42  33 NW8       29.93S                  
MANASSAS*      SUNNY     71  43  36 NW14G20   29.92S                  
LEESBURG*      SUNNY     68  45  42 NW16G22   29.93S                  
WINCHESTER     SUNNY     63  37  39 NW17G24   29.95R                  
FRONT ROYAL*   CLEAR     66  39  37 W7        29.94R                  
LURAY*         CLEAR     68  43  40 NW9       29.95S                  
$$

VAZ048-049-060>072-079>083-192100-
CENTRAL AND SOUTH CENTRAL VIRGINIA
  
CITY           SKY/WX    TMP DP  RH WIND       PRES   REMARKS
RICHMOND       PTSUNNY   73  46  38 NW5       29.92S                  
CHESTERFIELD*  MOCLDY    73  39  29 NW7       29.94S                  
PETERSBURG*    MOSUNNY   71  44  38 CALM      29.94S                  
HANOVER        MOSUNNY   70  45  40 NW8       29.94R                  
TAPPAHANNOCK*  MOSUNNY   70  30  22 N7        29.93R                  
QUINTON*       CLOUDY    70  46  42 W3        29.91S                  
CHARLOTTSVILLE SUNNY     73  41  31 W8        29.93S                  
GORDONSVILLE*  CLEAR     72  42  34 CALM      29.93R                  
ORANGE*        SUNNY     72  43  35 CALM      29.94R                  
LOUISA*        MOSUNNY   77  46  33 W13       29.92R                  
BUMPASS*       MOCLDY    71  46  40 NE3       29.92S                  
FARMVILLE*     MOSUNNY   73  43  34 CALM      29.93S                  
CREWE*         FAIR      71  44  38 CALM      29.93F                  
FORT PICKETT*  MOCLDY   N/A N/A N/A S5        29.94S                  
CHASE CITY*    FAIR      69  40  34 CALM      29.96S                  
CLARKSVILLE*   FAIR      70  43  37 NE3       29.95S                  
SOUTH HILL*    SUNNY     70  44  39 N3        30.00S                  
LAWRENCEVILLE* FAIR      72  43  36 CALM      29.93S                  
EMPORIA*       SUNNY     72  45  37 NW6       29.95R                  
$$

VAZ088>098-192100-
SOUTHEAST VIRGINIA
  
CITY           SKY/WX    TMP DP  RH WIND       PRES   REMARKS
NORFOLK        CLOUDY    64  43  46 N8        29.92R                  
VIRGINIA BEACH MOSUNNY   68  42  38 N14       29.91R                  
NORFOLK NAVAL  PTSUNNY   67  42  40 NE8       29.93R                  
WEST POINT*    CLOUDY    71  39  32 NW7       29.93R                  
SALUDA*        FAIR      65  47  52 NW6       29.92R                  
NEWPORT NEWS   MOSUNNY   71  46  40 E8        29.91R                  
LANGLEY AFB    PTSUNNY   65  45  47 NE8       29.91R                  
FORT EUSTIS    MOSUNNY   76  46  34 W6        29.89R                  
WILLIAMSBURG*  SUNNY     77  48  36 NW12      29.91S                  
HR EXEC AP*    MOCLDY    73  46  38 N3        29.89S                  
FRANKLIN*      SUNNY     73  45  37 NW6       29.93R                  
US460-WAKEFLD  MOSUNNY   74  45  35 VRB6      29.92R                  
$$

VAZ020-022-025-037-045-192100-
WEST CENTRAL AND SOUTHWEST VIRGINIA
  
CITY           SKY/WX    TMP DP  RH WIND       PRES   REMARKS
STAUNTON*      SUNNY     67  37  32 NW17      29.98R                  
WAYNESBORO*    CLEAR     68  36  31 W9G16     29.96S                  
HOT SPRINGS VA CLOUDY    52  36  54 W10       30.04S                  
LYNCHBURG      SUNNY     70  41  34 NW7       29.98S                  
DANVILLE       SUNNY     69  45  41 NW8       29.98F                  
SOUTH BOSTON*  FAIR      70  41  35 NW3       29.97S                  
MARTINSVILLE   SUNNY     67  41  38 NW12      30.03S                  
ROANOKE        MOSUNNY   64  41  42 NW15      30.04S                  
BLACKSBURG     SUNNY     59  43  55 NW9       30.08S                  
DUBLIN*        MOSUNNY   58  42  55 NW13      30.08S                  
MARION*        CLOUDY    55  43  63 W15       30.12R                  
HILLSVILLE*    SUNNY     56  43  60 N15G21    30.04F                  
RICHLANDS*     MOCLDY    52  44  73 CALM      30.10S                  
WISE*          SUNNY     59  41  51 N5        30.11R                  
ABINGDON*      CLOUDY    57  47  71 SW5       30.11S                  
$$

MDZ021>025-VAZ099-100-192100-
SOUTHERN MARYLAND AND THE DELMARVA PENINSULA
  
CITY           SKY/WX    TMP DP  RH WIND       PRES   REMARKS
PATUXENT RIVER MOSUNNY   67  47  48 SE6       29.90R                  
BAY BRIDGE APT SUNNY     68  43  40 W3        29.89R                  
LEONARDTOWN    SUNNY     70  39  32 NW10      29.92R                  
DOVER          SUNNY     70  46  41 W10       29.85R                  
GEORGETOWN     SUNNY     70  42  36 W7        29.87R                  
EASTON         NOT AVBL                                               
CAMBRIDGE      SUNNY     66  43  42 N3        29.89S                  
SALISBURY      SUNNY     70  45  40 W8        29.88R                  
OCEAN CITY     MOSUNNY   68  43  40 MISG      29.88R                  
WALLOPS ISLAND MOSUNNY   68  46  45 NW10      29.89S                  
ACCOMACK*      MOSUNNY   65  46  50 NW7       29.90S                  
$$

NCZ012>017-030>032-192100-
NORTH CENTRAL AND EASTERN NORTH CAROLINA
  
CITY           SKY/WX    TMP DP  RH WIND       PRES   REMARKS
ROANOKE RAPIDS FAIR      72  46  40 N9        29.93S                  
RALEIGH        MOSUNNY   72  42  34 VRB6      29.96F                  
ELIZABETH CITY SUNNY     72  45  37 N7        29.91R                  
AHOSKIE*         N/A     71  46  40 CALM      29.93R                  
EDENTON*       SUNNY     74  46  37 N8        29.91S                  
CURRITUCK*     SUNNY     69  43  38 E8        29.92R                  
KILL DEVIL HLS NOT AVBL                                               
MANTEO         SUNNY     65  45  47 N6        29.91S                  
CAPE HATTERAS  SUNNY     64  46  52 W5        29.91S                  
TARBORO*       NOT AVBL                                               
GOLDSBORO      SUNNY     72  41  32 NW8       29.92S                  
WASHINGTON     SUNNY     72  43  35 N10       29.91S                  
GREENVILLE     SUNNY     77  43  29 NW10G16   29.94S                  
NEW BERN       SUNNY     73  43  33 NW12      29.92S                  
WILMINGTON     SUNNY     73  47  39 W13G18    29.93S                  
$$

VAZ048-192100-
ELSEWHERE
  
CITY           SKY/WX    TMP DP  RH WIND       PRES   REMARKS
HARRISBURG PA  MOSUNNY   69  34  27 NW16G25   29.87R                  
BALTIMORE      MOSUNNY   70  42  36 NW10G23   29.88S                  
ANNAPOLIS      SUNNY     69  41  36 NW12      29.88R                  
ANDREWS AFB    SUNNY     68  42  37 W13       29.90R                  
PHILADELPHIA   MOSUNNY   69  37  30 W14       29.85R                  
HENDERSON NC   SUNNY     67  40  37 NW9       29.96S                  
GREENSBORO     MOSUNNY   70  44  39 N9        29.98F                  
ROCKY MOUNT    SUNNY     72  44  36 NW13      29.94R                  
$$

VAZ100-192100-
MARINE
  
STATION/POSITION TIME  TEMP    WIND        PRES    WAVE   SWELL
                       AIR SEA DIR/SP/G            HT/PER HT/PER
                 (UTC) (F)     (DEG/KT/KT) (MB)    (FT/S) (FT/S)
CAPE MAY NJ      1948   55 41  290/  4/  5 1011.0R
LEWES DE         1948   54 41   70/  3/  4 1011.3R
OCEAN-CITY-INLET 1948   56 42  170/  3/  5 1012.2R
WACHAPREAGUE VA  1948   66 48  310/  3/  9 1012.3R
THOMAS POINT MD  2000   67 42  290/ 10/ 11   N/A
GOOSES REEF MD   2000   53 42  140/  2/  4 1013.2    0
COVE POINT MD    1948   61      90/  2/  2 1013.0R
SOLOMONS ISLAND  1948   67 42  320/  7/ 10   N/A
BISHOPS HEAD MD  1948   53 47  240/ 12/ 12 1013.0R
PINEY POINT MD   1948          300/ 12/ 12   N/A
POTOMAC MD       2000   54 44  350/  6/ 10 1012.1
CAMBRIDGE MD     1948   63 40  340/  5/  6 1011.4S
LEWISETTA VA     1948   64 44  330/  9/ 12 1012.7R
RAPPAHANNOCK LGT 1948           30/  2/  3 1013.3R
YORK RVR RNG VA  1948   56      90/  8/  9 1012.2R
YORKTOWN VA      1948   67 44   40/  2/  4 1012.4R
JAMESTOWN VA     2000   64 49  300/  6/ 10   N/A     0
DOMINION TERM VA 1948   62      80/  9/ 12 1013.2R
KIPTOPEKE VA     1948      46  350/  5/  7   N/A
CHES BAY BRIDGE  1948   59 45   30/ 12/ 13 1013.0R
CAPE HENRY VA    1948   57     310/  9/ 12   N/A
WILLOUBY STN VA  1948          100/  6/  6   N/A
S CRANEY ISL VA  1948   59      40/ 13/ 14 1012.9R
CAPE HENRY BUOY  1942      48                N/A     2/ 6
OFFSHORE WE BUOY 1951      49                N/A     2/ 5
64NM E OF VA BCH 1950   53 52  250/  8/  8 1012.1R   2/ 5   2/ 5
DUCK PIER NC     1948   60 47   20/  5/  5 1012.2R
44100 DUCK FRF   1935      50                N/A     1/ 4
44056 DUCK FRF   1930      51                N/A     1/11
OREGON INLET NC  1948          350/  9/ 14   N/A
HATTERAS NC      1948   58 56  270/  5/  6 1012.3F
DIAMOND SHLS NC  1950   59 67  310/ 10/ 12 1012.7R   2/ 7   2/ 7
CAPE LOOKOUT NC  2000   64     260/  9/ 12 1012.7R
$$
  

Return to Home page


Western Regional Climate Center, wrcc@dri.edu